USA 99 (MILSTAR-1 1)

Last updated on Sun Oct 06 2024 00:02:37 GMT+0000 (Coordinated Universal Time)

1 22988U 94009A 24279.50718174 -.00000186 00000+0 00000+0 0 9992 2 22988 16.6808 34.2888 0002286 171.3174 261.6571 1.00275386 26744
UTC large
Height (km)
Speed (km/s)
/
Latitude / Longitude
Inclination (degrees)
Orbital Period (minutes)
Azimuth
Elevation
Range (km)
Doppler Factor

Next 0 passes for location: London (51.5072 / 0.1276)

Sorry there are no passes over London.